Location: Township of Marena
(38.1747°N, 99.6798°W)
Time: 11:33:10
(UTC+00:00)

Cosmos 2228 - Pass Details

Date: 26 October 2020
Orbit: 590 x 617 km, 82.5° (Epoch: 24 November)

Event Time Altitude Azimuth Distance (km) Brightness Sun altitude
Rises 00:34:40 0° 193° (SSW) 2,807 6.7 -10.0°
Reaches altitude 10° 00:36:52 10° 196° (SSW) 1,912 5.9 -10.5°
Maximum altitude 00:41:04 65° 279° (W) 652 3.4 -11.3°
Drops below altitude 10° 00:45:18 10° 1° (N) 1,935 5.5 -12.1°
Sets 00:47:32 0° 4° (N) 2,845 6.4 -12.5°
